• In Netherlands
  • List of Countries
  • For 7 days
  • Water Temperature
  • Satellite Maps
  • Weather Map
  • Weather Widgets
  • user-avatar
    Login

    Hourly Weather Dinagepoor

    Today, 20 January, Saturday

    Time Temperature Precipitation Wind Pressure Humidity
    00:00 +17°C° 0 mm 2 mps 758 mmHg 59%
    01:00 +16°C° 0 mm 2 mps 758 mmHg 61%
    02:00 +16°C° 0 mm 2 mps 758 mmHg 63%
    03:00 +16°C° 0 mm 2 mps 757 mmHg 66%
    04:00 +15°C° 0 mm 2 mps 757 mmHg 67%
    05:00 +15°C° 0 mm 2 mps 757 mmHg 68%
    06:00 +14°C° 0 mm 1 mps 757 mmHg 72%
    07:00 +15°C° 0 mm 2 mps 758 mmHg 67%
    08:00 +16°C° 0 mm 2 mps 758 mmHg 63%
    09:00 +17°C° 0 mm 3 mps 759 mmHg 58%
    10:00 +19°C° 0 mm 3 mps 758 mmHg 52%
    11:00 +21°C° 0 mm 3 mps 758 mmHg 46%
    12:00 +24°C° 0 mm 2 mps 758 mmHg 39%
    13:00 +25°C° 0 mm 2 mps 758 mmHg 37%
    14:00 +25°C° 0 mm 2 mps 757 mmHg 34%
    15:00 +26°C° 0 mm 2 mps 757 mmHg 32%
    16:00 +25°C° 0 mm 2 mps 757 mmHg 35%
    17:00 +24°C° 0 mm 2 mps 757 mmHg 38%
    18:00 +23°C° 0 mm 2 mps 757 mmHg 40%
    19:00 +21°C° 0 mm 2 mps 757 mmHg 43%
    20:00 +20°C° 0 mm 2 mps 757 mmHg 45%
    21:00 +19°C° 0 mm 2 mps 758 mmHg 47%
    22:00 +19°C° 0 mm 2 mps 758 mmHg 49%
    23:00 +18°C° 0 mm 2 mps 758 mmHg 51%

    Tomorrow, 21 January, Sunday

    Time Temperature Precipitation Wind Pressure Humidity
    00:00 +18°C° 0 mm 2 mps 758 mmHg 53%
    01:00 +17°C° 0 mm 2 mps 758 mmHg 55%
    02:00 +17°C° 0 mm 2 mps 757 mmHg 57%
    03:00 +16°C° 0 mm 2 mps 757 mmHg 59%
    04:00 +16°C° 0 mm 1 mps 757 mmHg 61%
    05:00 +15°C° 0 mm 1 mps 757 mmHg 63%
    06:00 +15°C° 0 mm 1 mps 757 mmHg 65%
    07:00 +16°C° 0 mm 1 mps 758 mmHg 62%
    08:00 +19°C° 0 mm 1 mps 759 mmHg 59%
    09:00 +20°C° 0 mm 1 mps 759 mmHg 56%
    10:00 +22°C° 0 mm 1 mps 759 mmHg 50%
    11:00 +24°C° 0 mm 1 mps 759 mmHg 44%
    12:00 +26°C° 0 mm 1 mps 758 mmHg 38%
    13:00 +26°C° 0 mm 1 mps 758 mmHg 36%
    14:00 +27°C° 0 mm 1 mps 757 mmHg 33%
    15:00 +27°C° 0 mm 2 mps 756 mmHg 31%
    16:00 +26°C° 0 mm 2 mps 756 mmHg 33%
    17:00 +25°C° 0 mm 2 mps 756 mmHg 36%
    18:00 +24°C° 0 mm 2 mps 756 mmHg 39%
    19:00 +23°C° 0 mm 2 mps 756 mmHg 41%
    20:00 +21°C° 0 mm 2 mps 757 mmHg 43%
    21:00 +20°C° 0 mm 2 mps 757 mmHg 45%
    22:00 +20°C° 0 mm 2 mps 757 mmHg 46%
    23:00 +19°C° 0 mm 2 mps 757 mmHg 47%

    Day after tomorrow, 22 January, Monday

    Time Temperature Precipitation Wind Pressure Humidity
    00:00 +18°C° 0 mm 3 mps 757 mmHg 48%
    01:00 +18°C° 0 mm 2 mps 756 mmHg 49%
    02:00 +17°C° 0 mm 2 mps 756 mmHg 50%
    03:00 +17°C° 0 mm 2 mps 756 mmHg 51%
    04:00 +17°C° 0 mm 2 mps 756 mmHg 52%
    05:00 +16°C° 0 mm 2 mps 756 mmHg 53%
    06:00 +16°C° 0 mm 2 mps 756 mmHg 54%
    07:00 +17°C° 0 mm 2 mps 757 mmHg 51%
    08:00 +18°C° 0 mm 2 mps 757 mmHg 48%
    09:00 +20°C° 0 mm 2 mps 758 mmHg 45%
    10:00 +21°C° 0 mm 2 mps 758 mmHg 42%
    11:00 +24°C° 0 mm 2 mps 758 mmHg 38%
    12:00 +26°C° 0 mm 2 mps 757 mmHg 34%
    13:00 +26°C° 0 mm 2 mps 757 mmHg 33%
    14:00 +27°C° 0 mm 2 mps 756 mmHg 31%
    15:00 +27°C° 0 mm 2 mps 755 mmHg 29%
    16:00 +26°C° 0 mm 2 mps 755 mmHg 31%
    17:00 +25°C° 0 mm 2 mps 755 mmHg 34%
    18:00 +24°C° 0 mm 2 mps 755 mmHg 36%
    19:00 +23°C° 0 mm 2 mps 756 mmHg 37%
    20:00 +21°C° 0 mm 2 mps 756 mmHg 39%
    21:00 +20°C° 0 mm 2 mps 757 mmHg 40%
    22:00 +20°C° 0 mm 2 mps 757 mmHg 42%
    23:00 +19°C° 0 mm 2 mps 756 mmHg 43%

    23 January, Tuesday

    Time Temperature Precipitation Wind Pressure Humidity
    00:00 +19°C° 0 mm 2 mps 756 mmHg 44%
    01:00 +18°C° 0 mm 2 mps 756 mmHg 45%
    02:00 +18°C° 0 mm 2 mps 756 mmHg 47%
    03:00 +17°C° 0 mm 2 mps 756 mmHg 48%
    04:00 +17°C° 0 mm 2 mps 756 mmHg 49%
    05:00 +16°C° 0 mm 2 mps 756 mmHg 51%
    06:00 +16°C° 0 mm 2 mps 756 mmHg 52%
    07:00 +18°C° 0 mm 1 mps 756 mmHg 49%
    08:00 +19°C° 0 mm 1 mps 757 mmHg 47%
    09:00 +21°C° 0 mm 1 mps 758 mmHg 44%
    10:00 +22°C° 0 mm 1 mps 757 mmHg 40%
    11:00 +24°C° 0 mm 1 mps 757 mmHg 36%
    12:00 +26°C° 0 mm 1 mps 756 mmHg 32%
    13:00 +27°C° 0 mm 1 mps 755 mmHg 30%
    14:00 +27°C° 0 mm 1 mps 754 mmHg 28%
    15:00 +28°C° 0 mm 2 mps 753 mmHg 26%
    16:00 +27°C° 0 mm 1 mps 753 mmHg 28%
    17:00 +25°C° 0 mm 1 mps 753 mmHg 30%
    18:00 +24°C° 0 mm 1 mps 753 mmHg 32%
    19:00 +23°C° 0 mm 1 mps 754 mmHg 33%
    20:00 +23°C° 0 mm 1 mps 754 mmHg 34%
    21:00 +22°C° 0 mm 1 mps 755 mmHg 36%
    22:00 +21°C° 0 mm 1 mps 755 mmHg 37%
    23:00 +21°C° 0 mm 1 mps 755 mmHg 38%

    24 January, Wednesday

    Time Temperature Precipitation Wind Pressure Humidity
    00:00 +20°C° 0 mm 1 mps 755 mmHg 39%
    01:00 +20°C° 0 mm 1 mps 755 mmHg 41%
    02:00 +19°C° 0 mm 1 mps 754 mmHg 43%
    03:00 +19°C° 0 mm 1 mps 754 mmHg 45%
    04:00 +19°C° 0 mm 1 mps 754 mmHg 46%
    05:00 +16°C° 0 mm 0 mps 754 mmHg 47%
    06:00 +16°C° 0 mm 0 mps 754 mmHg 48%
    07:00 +19°C° 0 mm 1 mps 754 mmHg 44%
    08:00 +21°C° 0 mm 1 mps 755 mmHg 41%
    09:00 +22°C° 0 mm 1 mps 756 mmHg 37%
    10:00 +24°C° 0 mm 1 mps 755 mmHg 33%
    11:00 +26°C° 0 mm 1 mps 755 mmHg 29%
    12:00 +28°C° 0 mm 2 mps 755 mmHg 24%
    13:00 +28°C° 0 mm 2 mps 754 mmHg 24%
    14:00 +29°C° 0 mm 2 mps 753 mmHg 23%
    15:00 +30°C° 0 mm 1 mps 752 mmHg 22%
    16:00 +29°C° 0 mm 1 mps 752 mmHg 25%
    17:00 +28°C° 0 mm 1 mps 752 mmHg 27%
    18:00 +27°C° 0 mm 1 mps 752 mmHg 30%
    19:00 +26°C° 0 mm 2 mps 752 mmHg 31%
    20:00 +25°C° 0 mm 3 mps 753 mmHg 33%
    21:00 +24°C° 0 mm 3 mps 753 mmHg 35%
    22:00 +24°C° 0 mm 3 mps 753 mmHg 37%
    23:00 +22°C° 0 mm 3 mps 753 mmHg 40%

    25 January, Thursday

    Time Temperature Precipitation Wind Pressure Humidity
    00:00 +23°C° 0 mm 2 mps 753 mmHg 42%
    01:00 +23°C° 0 mm 2 mps 753 mmHg 44%
    02:00 +21°C° 0 mm 2 mps 753 mmHg 45%
    03:00 +21°C° 0 mm 2 mps 753 mmHg 47%
    04:00 +20°C° 0 mm 2 mps 753 mmHg 50%
    05:00 +19°C° 0 mm 2 mps 753 mmHg 53%
    06:00 +18°C° 0 mm 3 mps 754 mmHg 56%
    07:00 +19°C° 0 mm 3 mps 754 mmHg 53%
    08:00 +20°C° 0 mm 3 mps 755 mmHg 50%
    09:00 +21°C° 0 mm 3 mps 756 mmHg 46%
    10:00 +22°C° 0 mm 3 mps 756 mmHg 42%
    11:00 +25°C° 0 mm 3 mps 755 mmHg 38%
    12:00 +27°C° 0 mm 3 mps 755 mmHg 34%
    13:00 +27°C° 0 mm 2 mps 754 mmHg 33%
    14:00 +28°C° 0 mm 2 mps 754 mmHg 32%
    15:00 +28°C° 0 mm 2 mps 753 mmHg 31%
    16:00 +27°C° 0 mm 2 mps 753 mmHg 33%
    17:00 +26°C° 0 mm 2 mps 753 mmHg 35%
    18:00 +25°C° 0 mm 3 mps 753 mmHg 37%
    19:00 +24°C° 0 mm 3 mps 753 mmHg 39%
    20:00 +22°C° 0 mm 3 mps 754 mmHg 42%
    21:00 +21°C° 0 mm 3 mps 755 mmHg 44%
    22:00 +21°C° 0 mm 3 mps 755 mmHg 47%
    23:00 +20°C° 0 mm 3 mps 755 mmHg 49%
    Show more